Location: Terra Rouge Observatory
(46.0000°N, 62.7500°W)
Time: 17:19:10
(UTC-03:00)

Amateur Radio Satellites - All Passes

Search period start: 01 October 2014 16:49
Search period end: 02 October 2014 16:49
Location: Terra Rouge Observatory, 46.0000°N, 62.7500°W

Satellite Date Start Highest point End Downlink Frequencies (MHz)
Time Altitude Azimuth
OPAL 01 Oct 16:53:53 16:56:01 13° 90° (E) 16:58:08 ?
Sapphire 01 Oct 17:05:20 17:09:07 19° 35° (NE) 17:12:54 437.095 MHz 1200 baud AX-25 AFSK
KITSAT 1 01 Oct 17:10:11 17:17:49 48° 113° (ESE) 17:25:28 435.175 FM
Hamsat 01 Oct 17:18:49 17:22:26 27° 67° (ENE) 17:26:02 145.90 MHz
JAS-2 01 Oct 17:22:28 17:27:19 41° 67° (ENE) 17:32:29 435.800 - 435.900 CW/SSB, 435.910 FM
PCSat 01 Oct 17:30:35 17:35:09 27° 42° (NE) 17:39:42 145.825 MHz
SO-50 01 Oct 18:26:40 18:26:52 10° 106° (ESE) 18:27:04 436.795 FM
Uosat F 01 Oct 18:28:45 18:29:22 10° 274° (W) 18:29:59 435.120 FM
OPAL 01 Oct 18:30:28 18:35:37 88° 288° (WNW) 18:40:39 ?
AO-7 01 Oct 18:46:07 18:50:11 14° 275° (W) 18:54:17 29.400 - 29.500 MHz
Sapphire 01 Oct 18:47:59 18:53:27 78° 57° (ENE) 18:58:53 437.095 MHz 1200 baud AX-25 AFSK
HO-68 01 Oct 18:50:01 18:52:49 13° 43° (NE) 18:55:37 435.675 MHz FM
Oscar 10/S400 01 Oct 18:53:08 19:13:02 50° 168° (SSE) 21:10:35 145.825 - 145.975 CW/USB, Beacon 145.810 USB
Hamsat 01 Oct 18:54:23 18:58:17 32° 264° (W) 19:02:11 145.90 MHz
KITSAT 1 01 Oct 19:05:27 19:13:15 50° 315° (NW) 19:21:05 435.175 FM
JAS-2 01 Oct 19:08:18 19:12:40 27° 267° (W) 19:17:16 435.800 - 435.900 CW/SSB, 435.910 FM
SO-67 01 Oct 19:10:29 19:13:51 53° 74° (ENE) 19:17:14 435.3500 MHz FM
PCSat 01 Oct 19:13:38 19:19:01 64° 242° (WSW) 19:24:21 145.825 MHz
STRAND 1 01 Oct 19:32:52 19:37:39 37° 97° (E) 19:42:23 ?
AO-40 01 Oct 19:54:17 00:06:06 32° 189° (S) 05:10:08 Beacon 2401.320
SO-50 01 Oct 20:02:05 20:06:34 80° 125° (SE) 20:11:13 436.795 FM
OPAL 01 Oct 20:11:00 20:13:44 15° 307° (NW) 20:16:27 ?
UOSAT-12 01 Oct 20:28:41 20:31:32 16° 110° (ESE) 20:34:25 437.025 FM, 437.400 FM
HO-68 01 Oct 20:32:06 20:38:57 52° 65° (ENE) 20:45:50 435.675 MHz FM
Sapphire 01 Oct 20:32:48 20:36:13 17° 255° (WSW) 20:39:37 437.095 MHz 1200 baud AX-25 AFSK
SO-67 01 Oct 20:46:44 20:47:12 10° 271° (W) 20:47:39 435.3500 MHz FM
KITSAT 1 01 Oct 21:04:59 21:10:51 21° 342° (NNW) 21:16:43 435.175 FM
STRAND 1 01 Oct 21:12:13 21:16:45 32° 295° (WNW) 21:21:17 ?
Oscar 11 01 Oct 21:13:52 21:17:37 29° 67° (ENE) 21:21:22 145.825 FM, Beacon 2401.500 USB
FUNcube-1 01 Oct 21:39:49 21:43:31 25° 65° (ENE) 21:47:15 145.950 - 145.970 MHz USB
UKube-1 01 Oct 21:43:15 21:47:35 75° 74° (ENE) 21:51:56 145.840 MHz, 145.915 MHz
SO-50 01 Oct 21:44:16 21:47:43 21° 326° (NW) 21:51:14 436.795 FM
ISS 01 Oct 21:44:58 21:46:54 15° 134° (SE) 21:48:51 145.800 FM
Saudisat 1A 01 Oct 21:45:12 21:48:55 25° 39° (NE) 21:52:37 436.775 MHz
UOSAT-12 01 Oct 22:06:29 22:11:07 73° 308° (NW) 22:15:52 437.025 FM, 437.400 FM
HO-68 01 Oct 22:20:30 22:26:53 35° 264° (W) 22:33:20 435.675 MHz FM
ZACube-1 01 Oct 22:24:08 22:28:39 65° 73° (ENE) 22:33:15 437.345 MHz
Oscar 11 01 Oct 22:49:52 22:53:44 30° 264° (W) 22:57:37 145.825 FM, Beacon 2401.500 USB
KITSAT 1 01 Oct 23:04:15 23:09:46 19° 12° (NNE) 23:15:16 435.175 FM
FUNcube-1 01 Oct 23:15:24 23:19:41 40° 263° (W) 23:24:03 145.950 - 145.970 MHz USB
ISS 01 Oct 23:19:50 23:23:10 88° 156° (SSE) 23:26:31 145.800 FM
UKube-1 01 Oct 23:22:46 23:24:18 12° 271° (W) 23:25:50 145.840 MHz, 145.915 MHz
Saudisat 1A 01 Oct 23:24:27 23:28:45 52° 239° (WSW) 23:33:02 436.775 MHz
UOSAT-12 01 Oct 23:49:01 23:52:06 17° 329° (NNW) 23:55:14 437.025 FM, 437.400 FM
ZACube-1 02 Oct 00:02:53 00:05:30 15° 271° (W) 00:08:09 437.345 MHz
ISS 02 Oct 00:57:05 01:00:09 32° 351° (N) 01:03:12 145.800 FM
KITSAT 1 02 Oct 01:00:12 01:07:45 40° 40° (NE) 01:15:14 435.175 FM
RS-15 02 Oct 01:31:13 01:40:09 30° 104° (ESE) 01:48:58 29.354 - 29.394 USB, Beacon 29.352 USB
Oscar 16 02 Oct 01:47:05 01:50:55 21° 92° (E) 01:54:44 437.025 USB, Beacon 2401.1428
AO-Echo 02 Oct 01:51:45 01:53:13 11° 87° (E) 01:54:42 ?
AO-27 02 Oct 02:00:00 02:01:30 11° 86° (E) 02:03:01 436.795 MHz FM
Gurwin Techsat 1B 02 Oct 02:29:54 02:30:54 11° 85° (E) 02:31:54 435.225 FM
ISS 02 Oct 02:34:18 02:37:23 34° 11° (N) 02:40:28 145.800 FM
Oscar 19 02 Oct 02:44:13 02:49:21 65° 102° (ESE) 02:54:26 437.125 CW, 437.150 USB
SO-50 02 Oct 02:51:15 02:55:19 27° 39° (NE) 02:59:25 436.795 FM
KITSAT 1 02 Oct 02:55:39 03:03:36 63° 243° (WSW) 03:11:30 435.175 FM
TMSAT-1 02 Oct 02:56:24 02:59:14 14° 88° (E) 03:02:03 436.925 FM
JAS-1B 02 Oct 02:56:26 03:01:56 48° 100° (E) 03:07:50 435.800 - 435.900 CW/SSB
ITAMSAT 1 02 Oct 02:58:04 03:02:56 38° 97° (E) 03:07:46 435.822 SSB
Uribyol 2 02 Oct 02:58:41 03:03:37 40° 98° (E) 03:08:31 436.500 FM
UOSAT-12 02 Oct 03:15:34 03:16:46 11° 19° (NNE) 03:17:59 437.025 FM, 437.400 FM
Oscar 16 02 Oct 03:25:35 03:30:38 55° 290° (WNW) 03:35:37 437.025 USB, Beacon 2401.1428
AO-Echo 02 Oct 03:27:39 03:32:41 85° 104° (ESE) 03:37:52 ?
AO-27 02 Oct 03:36:34 03:41:50 82° 104° (ESE) 03:47:04 436.795 MHz FM
RS-15 02 Oct 03:40:15 03:51:17 82° 307° (NW) 04:02:19 29.354 - 29.394 USB, Beacon 29.352 USB
Gurwin Techsat 1B 02 Oct 04:06:23 04:11:44 78° 103° (ESE) 04:17:03 435.225 FM
OPAL 02 Oct 04:09:44 04:14:21 33° 63° (ENE) 04:18:57 ?
ISS 02 Oct 04:10:59 04:14:18 76° 210° (SSW) 04:17:37 145.800 FM
Oscar 19 02 Oct 04:24:35 04:28:13 20° 300° (WNW) 04:31:49 437.125 CW, 437.150 USB
SO-50 02 Oct 04:31:28 04:36:13 59° 238° (WSW) 04:41:00 436.795 FM
TMSAT-1 02 Oct 04:34:28 04:39:49 82° 286° (WNW) 04:45:07 436.925 FM
ITAMSAT 1 02 Oct 04:37:44 04:42:20 32° 295° (WNW) 04:46:56 435.822 SSB
Uribyol 2 02 Oct 04:38:26 04:42:57 30° 296° (WNW) 04:47:27 436.500 FM
MaSat-1 02 Oct 04:42:13 04:44:29 13° 103° (ESE) 04:46:43 437.345 MHz
AO-7 02 Oct 04:46:36 04:54:03 35° 96° (E) 05:01:26 29.400 - 29.500 MHz
JAS-1B 02 Oct 04:47:48 04:52:27 27° 298° (WNW) 04:57:18 435.800 - 435.900 CW/SSB
Uosat F 02 Oct 04:50:28 04:54:39 26° 94° (E) 04:58:49 435.120 FM
UOSAT-12 02 Oct 04:54:05 04:58:23 33° 42° (NE) 05:02:38 437.025 FM, 437.400 FM
KITSAT 1 02 Oct 04:54:22 04:57:22 13° 263° (W) 05:00:23 435.175 FM
AO-Echo 02 Oct 05:08:02 05:10:50 15° 302° (WNW) 05:13:40 ?
STRAND 1 02 Oct 05:16:37 05:17:59 11° 53° (NE) 05:19:22 ?
AO-27 02 Oct 05:17:31 05:20:41 16° 303° (WNW) 05:23:50 436.795 MHz FM
Gurwin Techsat 1B 02 Oct 05:47:40 05:51:05 18° 302° (WNW) 05:54:30 435.225 FM
OPAL 02 Oct 05:48:18 05:53:08 38° 260° (W) 05:58:00 ?
ISS 02 Oct 05:49:03 05:50:30 12° 227° (SW) 05:51:56 145.800 FM
RS-15 02 Oct 05:55:42 06:05:29 35° 336° (NNW) 06:15:22 29.354 - 29.394 USB, Beacon 29.352 USB
JAS-2 02 Oct 06:11:38 06:17:46 36° 96° (E) 06:24:29 435.800 - 435.900 CW/SSB, 435.910 FM
MaSat-1 02 Oct 06:15:33 06:20:24 84° 298° (WNW) 06:24:57 437.345 MHz
TMSAT-1 02 Oct 06:16:19 06:18:54 14° 305° (NW) 06:21:29 436.925 FM
Uosat F 02 Oct 06:28:51 06:33:37 44° 292° (WNW) 06:38:22 435.120 FM
UOSAT-12 02 Oct 06:34:12 06:38:39 41° 242° (WSW) 06:43:01 437.025 FM, 437.400 FM
Hamsat 02 Oct 06:37:18 06:41:12 35° 97° (E) 06:45:02 145.90 MHz
AO-7 02 Oct 06:39:07 06:47:13 60° 296° (WNW) 06:55:17 29.400 - 29.500 MHz
STRAND 1 02 Oct 06:51:11 06:56:14 68° 72° (ENE) 07:01:20 ?
MaSat-1 02 Oct 07:54:44 07:57:27 15° 316° (NW) 08:00:03 437.345 MHz
JAS-2 02 Oct 07:56:37 08:02:55 50° 292° (WNW) 08:09:55 435.800 - 435.900 CW/SSB, 435.910 FM
SO-67 02 Oct 08:04:25 08:07:45 45° 99° (E) 08:11:04 435.3500 MHz FM
RS-15 02 Oct 08:12:38 08:21:58 30° 11° (NNE) 08:31:28 29.354 - 29.394 USB, Beacon 29.352 USB
Hamsat 02 Oct 08:13:39 08:16:58 23° 294° (WNW) 08:20:16 145.90 MHz
PCSat 02 Oct 08:19:14 08:20:22 11° 101° (E) 08:21:30 145.825 MHz
STRAND 1 02 Oct 08:32:44 08:35:56 17° 270° (W) 08:39:09 ?
AO-7 02 Oct 08:33:37 08:38:21 17° 319° (NW) 08:43:06 29.400 - 29.500 MHz
UKube-1 02 Oct 09:31:50 09:32:39 10° 88° (E) 09:33:28 145.840 MHz, 145.915 MHz
Sapphire 02 Oct 09:32:21 09:37:25 43° 114° (ESE) 09:42:31 437.095 MHz 1200 baud AX-25 AFSK
SO-67 02 Oct 09:38:43 09:40:24 13° 296° (WNW) 09:42:05 435.3500 MHz FM
HO-68 02 Oct 09:44:24 09:51:10 42° 98° (E) 09:57:54 435.675 MHz FM
JAS-2 02 Oct 09:45:21 09:46:41 11° 311° (NW) 09:48:02 435.800 - 435.900 CW/SSB, 435.910 FM
PCSat 02 Oct 09:57:24 10:02:47 73° 119° (ESE) 10:08:13 145.825 MHz
ZACube-1 02 Oct 10:13:37 10:14:53 11° 86° (E) 10:16:10 437.345 MHz
RS-15 02 Oct 10:26:24 10:37:17 58° 43° (NE) 10:48:33 29.354 - 29.394 USB, Beacon 29.352 USB
Oscar 11 02 Oct 10:34:31 10:38:36 39° 98° (E) 10:42:39 145.825 FM, Beacon 2401.500 USB
FUNcube-1 02 Oct 11:02:06 11:06:16 34° 96° (E) 11:10:19 145.950 - 145.970 MHz USB
UKube-1 02 Oct 11:05:03 11:09:26 83° 286° (WNW) 11:13:48 145.840 MHz, 145.915 MHz
Sapphire 02 Oct 11:15:59 11:20:56 35° 314° (NW) 11:25:56 437.095 MHz 1200 baud AX-25 AFSK
HO-68 02 Oct 11:32:11 11:38:54 44° 297° (WNW) 11:45:36 435.675 MHz FM
PCSat 02 Oct 11:42:23 11:46:46 24° 320° (NW) 11:51:10 145.825 MHz
ZACube-1 02 Oct 11:47:21 11:51:57 83° 285° (WNW) 11:56:24 437.345 MHz
JAS-1B 02 Oct 11:59:38 12:01:19 11° 50° (NE) 12:02:57 435.800 - 435.900 CW/SSB
Oscar 11 02 Oct 12:11:12 12:14:34 23° 295° (WNW) 12:17:55 145.825 FM, Beacon 2401.500 USB
Oscar 19 02 Oct 12:26:28 12:29:57 19° 59° (ENE) 12:33:27 437.125 CW, 437.150 USB
FUNcube-1 02 Oct 12:38:40 12:42:32 28° 294° (WNW) 12:46:19 145.950 - 145.970 MHz USB
RS-15 02 Oct 12:39:05 12:49:38 52° 247° (WSW) 13:00:37 29.354 - 29.394 USB, Beacon 29.352 USB
ITAMSAT 1 02 Oct 12:43:09 12:45:03 12° 54° (NE) 12:46:56 435.822 SSB
Uribyol 2 02 Oct 12:43:18 12:45:31 13° 54° (NE) 12:47:46 436.500 FM
UKube-1 02 Oct 12:43:54 12:44:54 11° 303° (WNW) 12:45:54 145.840 MHz, 145.915 MHz
Sapphire 02 Oct 13:04:30 13:06:04 11° 337° (NNW) 13:07:38 437.095 MHz 1200 baud AX-25 AFSK
Oscar 16 02 Oct 13:06:08 13:10:56 39° 67° (ENE) 13:15:44 437.025 USB, Beacon 2401.1428
AO-Echo 02 Oct 13:06:34 13:09:49 19° 61° (ENE) 13:13:05 ?
AO-27 02 Oct 13:19:19 13:23:23 24° 62° (ENE) 13:27:29 436.795 MHz FM
HO-68 02 Oct 13:23:24 13:24:49 11° 319° (NW) 13:26:14 435.675 MHz FM
ZACube-1 02 Oct 13:26:10 13:27:33 11° 303° (WNW) 13:28:56 437.345 MHz
Saudisat 1A 02 Oct 13:33:52 13:37:13 22° 113° (ESE) 13:40:36 436.775 MHz
JAS-1B 02 Oct 13:43:46 13:50:55 58° 70° (ENE) 13:57:01 435.800 - 435.900 CW/SSB
Gurwin Techsat 1B 02 Oct 13:51:44 13:55:52 24° 61° (ENE) 14:00:01 435.225 FM
AO-7 02 Oct 14:00:15 14:04:58 17° 41° (NE) 14:09:40 29.400 - 29.500 MHz
Oscar 19 02 Oct 14:03:35 14:08:45 71° 257° (WSW) 14:13:58 437.125 CW, 437.150 USB
ITAMSAT 1 02 Oct 14:18:28 14:23:37 73° 73° (ENE) 14:28:50 435.822 SSB
Uribyol 2 02 Oct 14:18:57 14:24:08 77° 73° (ENE) 14:29:22 436.500 FM
TMSAT-1 02 Oct 14:18:59 14:23:30 30° 64° (ENE) 14:28:02 436.925 FM
MaSat-1 02 Oct 14:28:41 14:31:51 31° 52° (NE) 14:34:37 437.345 MHz
AO-Echo 02 Oct 14:43:34 14:48:10 57° 259° (W) 14:52:52 ?
Oscar 16 02 Oct 14:45:49 14:50:21 30° 265° (W) 14:54:55 437.025 USB, Beacon 2401.1428
AO-27 02 Oct 14:57:32 15:02:35 52° 260° (W) 15:07:40 436.795 MHz FM
Saudisat 1A 02 Oct 15:12:12 15:16:29 50° 312° (NW) 15:20:49 436.775 MHz
Gurwin Techsat 1B 02 Oct 15:30:17 15:35:28 55° 260° (W) 15:40:42 435.225 FM
JAS-1B 02 Oct 15:35:44 15:41:50 28° 265° (W) 15:47:13 435.800 - 435.900 CW/SSB
KITSAT 1 02 Oct 15:36:07 15:39:51 14° 98° (E) 15:43:35 435.175 FM
AO-7 02 Oct 15:48:02 15:56:06 59° 64° (ENE) 16:04:11 29.400 - 29.500 MHz
TMSAT-1 02 Oct 15:58:16 16:03:15 42° 262° (W) 16:08:17 436.925 FM
ITAMSAT 1 02 Oct 16:00:33 16:03:41 16° 271° (W) 16:06:49 435.822 SSB
Uribyol 2 02 Oct 16:01:19 16:04:13 15° 271° (W) 16:07:08 436.500 FM
MaSat-1 02 Oct 16:05:52 16:07:54 16° 256° (WSW) 16:09:46 437.345 MHz
Uosat F 02 Oct 16:05:59 16:10:44 46° 69° (ENE) 16:15:32 435.120 FM
JAS-2 02 Oct 16:29:38 16:32:55 17° 55° (NE) 16:36:20 435.800 - 435.900 CW/SSB, 435.910 FM
Sapphire 02 Oct 16:35:08 16:38:23 16° 31° (NNE) 16:41:37 437.095 MHz 1200 baud AX-25 AFSK
